Radiation Dose at Monitoring Post of Fukushima Daini Nuclear Power Station
Date,Time,MP-1(microSv/h),MP-2(microSv/h),MP-3(microSv/h),MP-4(microSv/h),MP-5(microSv/h),MP-6(microSv/h),MP-7(microSv/h),Wind Direction,Wind Velocity(m/s),Rain
2017/08/21,00:00,0.337,0.208,0.340,0.316,0.312,0.168,0.106,-,CALM,No
2017/08/21,00:10,0.336,0.210,0.338,0.315,0.316,0.166,0.105,-,CALM,No
2017/08/21,00:20,0.340,0.208,0.339,0.320,0.310,0.167,0.104,-,CALM,No
2017/08/21,00:30,0.339,0.209,0.342,0.317,0.315,0.167,0.105,-,CALM,No
2017/08/21,00:40,0.336,0.209,0.339,0.319,0.313,0.166,0.104,east-southeast,0.8,No
2017/08/21,00:50,0.340,0.207,0.339,0.318,0.311,0.167,0.105,east-northeast,0.9,No
2017/08/21,01:00,0.337,0.210,0.341,0.316,0.316,0.167,0.106,northeast,0.5,No
2017/08/21,01:10,0.338,0.209,0.338,0.319,0.311,0.165,0.105,north-northeast,0.7,No
2017/08/21,01:20,0.342,0.208,0.339,0.319,0.311,0.167,0.105,-,CALM,No
2017/08/21,01:30,0.337,0.209,0.341,0.316,0.314,0.167,0.105,-,CALM,No
2017/08/21,01:40,0.338,0.208,0.338,0.319,0.311,0.166,0.105,-,CALM,No
2017/08/21,01:50,0.340,0.208,0.340,0.319,0.309,0.167,0.105,east-northeast,0.6,No
2017/08/21,02:00,0.337,0.208,0.340,0.315,0.314,0.166,0.106,east-northeast,1.2,No
2017/08/21,02:10,0.339,0.208,0.336,0.321,0.313,0.167,0.105,east-northeast,0.7,No
2017/08/21,02:20,0.342,0.209,0.340,0.319,0.309,0.167,0.104,northeast,1.1,No
2017/08/21,02:30,0.336,0.208,0.340,0.314,0.313,0.167,0.105,east-northeast,0.7,No
2017/08/21,02:40,0.336,0.208,0.337,0.320,0.313,0.166,0.104,east-northeast,0.6,No
2017/08/21,02:50,0.341,0.210,0.342,0.318,0.311,0.168,0.106,east-northeast,0.9,No
2017/08/21,03:00,0.337,0.209,0.341,0.317,0.315,0.167,0.105,-,CALM,No
2017/08/21,03:10,0.339,0.209,0.338,0.321,0.312,0.166,0.105,-,CALM,No
2017/08/21,03:20,0.341,0.210,0.341,0.318,0.312,0.167,0.106,northeast,0.7,No
2017/08/21,03:30,0.338,0.207,0.341,0.318,0.315,0.166,0.104,northeast,0.9,No
2017/08/21,03:40,0.337,0.209,0.337,0.321,0.313,0.167,0.104,northeast,0.9,No
2017/08/21,03:50,0.341,0.210,0.341,0.319,0.311,0.168,0.106,northeast,0.9,No
2017/08/21,04:00,0.337,0.208,0.340,0.317,0.316,0.166,0.105,east-northeast,0.5,No
2017/08/21,04:10,0.336,0.209,0.338,0.320,0.312,0.167,0.106,-,CALM,No
2017/08/21,04:20,0.342,0.209,0.341,0.319,0.311,0.167,0.106,-,CALM,No
2017/08/21,04:30,0.339,0.207,0.339,0.316,0.314,0.166,0.104,-,CALM,No
2017/08/21,04:40,0.336,0.208,0.339,0.321,0.313,0.167,0.106,south,1.0,No
2017/08/21,04:50,0.341,0.208,0.342,0.319,0.310,0.167,0.106,south-southwest,1.0,No
2017/08/21,05:00,0.337,0.208,0.340,0.315,0.315,0.166,0.105,south-southwest,1.1,No
2017/08/21,05:10,0.337,0.210,0.338,0.320,0.313,0.167,0.106,south-southwest,0.8,No
2017/08/21,05:20,0.340,0.207,0.340,0.319,0.310,0.167,0.106,south-southwest,1.2,No
2017/08/21,05:30,0.337,0.209,0.337,0.316,0.314,0.166,0.105,south-southwest,1.8,No
2017/08/21,05:40,0.336,0.209,0.339,0.319,0.313,0.167,0.106,south,1.2,No
2017/08/21,05:50,0.340,0.208,0.343,0.318,0.310,0.168,0.106,south,1.1,No
2017/08/21,06:00,0.337,0.209,0.339,0.317,0.313,0.166,0.105,south,1.3,No
2017/08/21,06:10,0.335,0.209,0.338,0.322,0.313,0.167,0.105,south,1.5,No
2017/08/21,06:20,0.341,0.207,0.341,0.319,0.311,0.168,0.106,south,1.4,No
2017/08/21,06:30,0.339,0.210,0.339,0.316,0.311,0.166,0.105,south,0.8,No
2017/08/21,06:40,0.336,0.208,0.339,0.320,0.315,0.167,0.105,-,CALM,No
2017/08/21,06:50,0.339,0.208,0.343,0.319,0.313,0.168,0.106,-,CALM,No
2017/08/21,07:00,0.341,0.210,0.340,0.316,0.310,0.167,0.105,-,CALM,No
2017/08/21,07:10,0.337,0.209,0.339,0.320,0.314,0.167,0.105,-,CALM,No
2017/08/21,07:20,0.339,0.208,0.343,0.319,0.314,0.168,0.105,southwest,0.6,No
2017/08/21,07:30,0.338,0.208,0.338,0.317,0.309,0.167,0.106,south-southwest,0.9,No
2017/08/21,07:40,0.336,0.210,0.337,0.318,0.313,0.167,0.105,south-southwest,0.7,No
2017/08/21,07:50,0.336,0.209,0.343,0.319,0.315,0.167,0.106,south-southwest,1.0,No
2017/08/21,08:00,0.340,0.208,0.340,0.316,0.313,0.168,0.106,south,1.4,No
2017/08/21,08:10,0.338,0.210,0.337,0.317,0.310,0.166,0.105,south-southeast,1.0,No
2017/08/21,08:20,0.336,0.210,0.340,0.320,0.314,0.165,0.103,south,0.5,No
2017/08/21,08:30,0.339,0.208,0.342,0.319,0.314,0.167,0.104,south,1.2,No
2017/08/21,08:40,0.340,0.207,0.337,0.315,0.312,0.167,0.104,south-southwest,1.6,No
2017/08/21,08:50,0.337,0.209,0.338,0.319,0.309,0.166,0.105,-,CALM,No
2017/08/21,09:00,0.335,0.209,0.341,0.321,0.313,0.166,0.104,south,0.7,No
2017/08/21,09:10,0.339,0.207,0.338,0.319,0.314,0.166,0.105,south,0.9,No
2017/08/21,09:20,0.340,0.206,0.337,0.315,0.313,0.168,0.106,south-southwest,1.4,No
2017/08/21,09:30,0.338,0.208,0.341,0.320,0.311,0.167,0.104,south,1.3,No
2017/08/21,09:40,0.336,0.209,0.343,0.320,0.312,0.167,0.104,south,1.6,No
2017/08/21,09:50,0.341,0.207,0.338,0.317,0.314,0.167,0.104,south,1.8,No
2017/08/21,10:00,0.339,0.206,0.336,0.317,0.313,0.167,0.106,south,1.6,No
2017/08/21,10:10,0.338,0.210,0.342,0.321,0.311,0.168,0.105,south,1.9,No
2017/08/21,10:20,0.337,0.210,0.341,0.319,0.310,0.168,0.104,south-southwest,1.7,No
2017/08/21,10:30,0.341,0.209,0.338,0.316,0.313,0.167,0.104,south-southwest,1.2,No
2017/08/21,10:40,0.341,0.208,0.337,0.316,0.314,0.168,0.106,south-southwest,1.6,No
2017/08/21,10:50,0.338,0.207,0.342,0.320,0.312,0.168,0.106,south,1.6,No
2017/08/21,11:00,0.336,0.210,0.341,0.320,0.310,0.168,0.106,south,1.0,No
2017/08/21,11:10,0.340,0.209,0.338,0.318,0.310,0.167,0.105,south-southwest,0.8,No
2017/08/21,11:20,0.341,0.208,0.337,0.317,0.310,0.166,0.105,south,1.4,No
2017/08/21,11:30,0.339,0.208,0.336,0.317,0.311,0.168,0.104,south,2.5,No
2017/08/21,11:40,0.337,0.208,0.336,0.317,0.311,0.167,0.104,south,3.4,No
2017/08/21,11:50,0.340,0.209,0.336,0.318,0.311,0.167,0.105,south,3.1,No
2017/08/21,12:00,0.338,0.208,0.337,0.317,0.312,0.167,0.105,south,3.9,No
2017/08/21,12:10,0.338,0.209,0.337,0.319,0.314,0.167,0.106,south-southeast,3.7,No
2017/08/21,12:20,0.338,0.209,0.337,0.319,0.313,0.168,0.104,south-southeast,3.0,No
2017/08/21,12:30,0.336,0.209,0.338,0.319,0.312,0.167,0.105,south-southeast,2.9,No
2017/08/21,12:40,0.336,0.208,0.337,0.318,0.313,0.168,0.105,southeast,2.3,No
2017/08/21,12:50,0.337,0.208,0.344,0.318,0.312,0.168,0.105,southeast,1.6,No
2017/08/21,13:00,0.343,0.208,0.344,0.322,0.311,0.167,0.105,south-southeast,2.0,No
2017/08/21,13:10,0.343,0.207,0.342,0.323,0.311,0.168,0.105,south-southeast,2.8,No
2017/08/21,13:20,0.341,0.207,0.339,0.321,0.312,0.168,0.106,south-southeast,3.6,No
2017/08/21,13:30,0.338,0.210,0.338,0.318,0.316,0.168,0.104,south,3.9,No
2017/08/21,13:40,0.336,0.211,0.343,0.317,0.317,0.167,0.105,south,4.9,No
2017/08/21,13:50,0.336,0.209,0.344,0.317,0.314,0.167,0.104,south,6.2,No
2017/08/21,14:00,0.336,0.210,0.341,0.318,0.315,0.168,0.104,south,6.4,No
2017/08/21,14:10,0.335,0.210,0.340,0.319,0.313,0.167,0.103,south,6.9,No
2017/08/21,14:20,0.338,0.208,0.340,0.317,0.312,0.169,0.104,south,5.6,No
2017/08/21,14:30,0.342,0.208,0.340,0.319,0.313,0.168,0.103,south,6.4,No
2017/08/21,14:40,0.343,0.210,0.340,0.322,0.312,0.167,0.104,south,5.2,No
2017/08/21,14:50,0.341,0.209,0.338,0.323,0.313,0.168,0.105,south,6.2,No
2017/08/21,15:00,0.340,0.210,0.338,0.321,0.311,0.167,0.105,south,7.2,No
2017/08/21,15:10,0.339,0.207,0.337,0.319,0.313,0.168,0.104,south,8.3,No
2017/08/21,15:20,0.338,0.209,0.338,0.317,0.313,0.168,0.104,south,6.0,No
2017/08/21,15:30,0.336,0.210,0.338,0.319,0.313,0.169,0.104,south,8.1,No
2017/08/21,15:40,0.338,0.209,0.338,0.317,0.312,0.168,0.104,south,7.2,No
2017/08/21,15:50,0.337,0.208,0.342,0.320,0.314,0.168,0.104,south,8.9,No
2017/08/21,16:00,0.341,0.208,0.346,0.324,0.313,0.168,0.107,south,9.3,No
2017/08/21,16:10,0.345,0.208,0.345,0.321,0.315,0.168,0.107,south,10.1,No
2017/08/21,16:20,0.342,0.209,0.342,0.319,0.315,0.169,0.105,south,9.8,No
2017/08/21,16:30,0.340,0.211,0.340,0.318,0.313,0.168,0.104,south,7.9,No
2017/08/21,16:40,0.338,0.210,0.339,0.320,0.312,0.169,0.105,south,8.1,No
2017/08/21,16:50,0.338,0.210,0.346,0.322,0.313,0.169,0.107,south,6.7,No
2017/08/21,17:00,0.342,0.209,0.345,0.322,0.312,0.169,0.106,south,7.1,No
2017/08/21,17:10,0.342,0.209,0.341,0.320,0.312,0.170,0.105,south,7.0,No
2017/08/21,17:20,0.340,0.211,0.340,0.320,0.318,0.169,0.106,south,5.8,No
2017/08/21,17:30,0.337,0.211,0.341,0.323,0.316,0.169,0.106,south-southwest,6.0,No
2017/08/21,17:40,0.340,0.209,0.346,0.321,0.314,0.168,0.106,south-southwest,5.0,No
2017/08/21,17:50,0.344,0.208,0.343,0.320,0.311,0.169,0.106,south-southwest,7.0,No
2017/08/21,18:00,0.342,0.211,0.341,0.318,0.313,0.169,0.105,south-southwest,6.6,No
2017/08/21,18:10,0.340,0.212,0.340,0.323,0.317,0.169,0.105,south-southwest,6.0,No
2017/08/21,18:20,0.339,0.209,0.344,0.322,0.317,0.167,0.107,south,4.5,No
2017/08/21,18:30,0.343,0.209,0.343,0.320,0.314,0.168,0.107,south-southwest,5.9,No
2017/08/21,18:40,0.344,0.211,0.339,0.319,0.314,0.169,0.106,south,5.9,No
2017/08/21,18:50,0.340,0.211,0.340,0.322,0.316,0.170,0.106,south-southwest,6.7,No
2017/08/21,19:00,0.337,0.210,0.344,0.323,0.315,0.168,0.106,south-southwest,6.9,No
2017/08/21,19:10,0.344,0.211,0.342,0.321,0.311,0.168,0.106,south-southwest,7.3,No
2017/08/21,19:20,0.342,0.211,0.341,0.319,0.315,0.168,0.106,south-southwest,8.3,No
2017/08/21,19:30,0.339,0.209,0.342,0.323,0.316,0.168,0.106,south-southwest,8.5,No
2017/08/21,19:40,0.342,0.209,0.345,0.323,0.314,0.168,0.107,south-southwest,7.9,No
2017/08/21,19:50,0.343,0.211,0.341,0.321,0.311,0.168,0.106,south-southwest,7.7,No
2017/08/21,20:00,0.340,0.210,0.339,0.321,0.316,0.169,0.106,south-southwest,8.4,No
2017/08/21,20:10,0.339,0.210,0.344,0.324,0.315,0.168,0.106,south-southwest,9.4,No
2017/08/21,20:20,0.344,0.211,0.344,0.321,0.312,0.168,0.107,south-southwest,9.3,No
2017/08/21,20:30,0.342,0.211,0.341,0.320,0.314,0.170,0.105,south-southwest,8.9,No
2017/08/21,20:40,0.339,0.209,0.340,0.322,0.317,0.168,0.106,south-southwest,8.9,No
2017/08/21,20:50,0.341,0.211,0.345,0.323,0.315,0.167,0.107,south-southwest,7.3,No
2017/08/21,21:00,0.344,0.210,0.343,0.320,0.312,0.168,0.106,south-southwest,8.1,No
2017/08/21,21:10,0.341,0.208,0.340,0.319,0.317,0.169,0.105,south-southwest,8.4,No
2017/08/21,21:20,0.338,0.211,0.342,0.323,0.317,0.168,0.106,south-southwest,10.1,No
2017/08/21,21:30,0.343,0.210,0.343,0.322,0.313,0.166,0.107,south-southwest,9.5,No
2017/08/21,21:40,0.342,0.209,0.341,0.318,0.313,0.169,0.105,south-southwest,9.2,No
2017/08/21,21:50,0.337,0.211,0.341,0.322,0.316,0.169,0.106,south-southwest,7.2,No
2017/08/21,22:00,0.342,0.211,0.343,0.322,0.314,0.168,0.107,south-southwest,4.5,No
2017/08/21,22:10,0.341,0.209,0.343,0.319,0.313,0.168,0.106,south-southwest,5.7,No
2017/08/21,22:20,0.339,0.210,0.341,0.321,0.318,0.170,0.106,south-southwest,4.8,No
2017/08/21,22:30,0.342,0.211,0.345,0.324,0.316,0.168,0.106,south-southwest,3.9,No
2017/08/21,22:40,0.343,0.210,0.343,0.321,0.313,0.168,0.107,south-southwest,4.7,No
2017/08/21,22:50,0.341,0.212,0.340,0.321,0.314,0.169,0.106,south-southwest,6.1,No
2017/08/21,23:00,0.341,0.210,0.343,0.324,0.316,0.168,0.107,south-southwest,6.1,No
2017/08/21,23:10,0.345,0.211,0.345,0.322,0.313,0.168,0.107,south-southwest,4.6,No
2017/08/21,23:20,0.340,0.211,0.342,0.320,0.315,0.169,0.106,south-southwest,5.3,No
2017/08/21,23:30,0.341,0.210,0.343,0.324,0.316,0.168,0.106,south-southwest,5.4,No
2017/08/21,23:40,0.343,0.209,0.344,0.323,0.314,0.169,0.108,south-southwest,6.4,No
2017/08/21,23:50,0.339,0.211,0.342,0.319,0.314,0.169,0.106,south-southwest,6.1,No
